Regional Weather Roundup
Issued by NWS

Home | Current Version | Previous Version | Graphics & Text | Print | Product List | Glossary Off
Versions: 1 2 3 4 5 6 7 8 9 10 11 12 13 14 15 16 17 18 19 20 21 22 23 24 25 26 27 28 29 30 31 32 33 34 35 36 37 38 39 40 41 42 43 44 45 46 47 48 49 50

000
ASUS43 KOAX 240110
RWRNE

WEATHER ROUNDUP FOR NEBRASKA
NATIONAL WEATHER SERVICE OMAHA NE
800 PM CDT SAT JUL 23 2016

NOTES: SATELLITE DATA IS BEING USED TO AUGMENT CLOUD COVER ABOVE
       12000 FEET.
       "FAIR" INDICATES FEW OR NO CLOUDS BELOW 12,000 FEET WITH NO
       SIGNIFICANT WEATHER AND/OR OBSTRUCTIONS TO VISIBILITY.

  * THESE STATIONS DO NOT REPORT WEATHER SUCH AS RAIN...SNOW OR FOG.

NEZ001>004-019>022-054>056-240200-
NEBRASKA PANHANDLE

CITY           SKY/WX    TMP DP  RH WIND       PRES   REMARKS
SCOTTSBLUFF    MOSUNNY   88  56  33 MISG      29.97R
ALLIANCE       MOSUNNY   85  57  38 E12       29.96R
CHADRON        SUNNY     89  44  20 NE13      29.93R
KIMBALL        CLOUDY    78  55  44 E3        30.06F
SIDNEY         LGT RAIN  80  52  37 E13G21    30.05F
$$

NEZ057>060-069>072-079>082-240200-
SOUTHWEST NEBRASKA

CITY           SKY/WX    TMP DP  RH WIND       PRES   REMARKS
NORTH PLATTE   SUNNY     87  67  51 NE9       29.88R HX  90
IMPERIAL       SUNNY     91  65  41 NE5       29.92R HX  93
LEXINGTON      SUNNY     89  75  63 S5        29.84S HX  99
MCCOOK         SUNNY     91  70  49 E7        29.86R HX  96
OGALLALA       SUNNY     89  61  39 NE9       29.93R
$$

NEZ005>010-023>029-035>040-094-240200-
NORTH CENTRAL NEBRASKA

CITY           SKY/WX    TMP DP  RH WIND       PRES   REMARKS
VALENTINE      SUNNY     88  51  28 N12       29.89R
AINSWORTH      SUNNY     84  58  40 N13       29.88R
BROKEN BOW     SUNNY     86  73  65 N7        29.85R HX  93
O`NEILL        CLEAR     89  69  50 W6        29.79S HX  93
ORD            CLEAR     88  75  65 SW6       29.79S HX  97
THEDFORD       SUNNY     90  60  36 N9        29.91R
$$

NEZ041-046>049-061>064-073>077-083>087-240200-
SOUTH CENTRAL NEBRASKA

CITY           SKY/WX    TMP DP  RH WIND       PRES   REMARKS
GRAND ISLAND   CLEAR     93  72  50 CALM      29.81R HX 101
AURORA         CLEAR     90  79  70 CALM      29.80R HX 105
HASTINGS       CLEAR     89  78  70 N6        29.82R HX 103
HEBRON         PTCLDY    89  69  50 S6        29.78S HX  94
HOLDREGE       CLEAR     87  74  64 N3        29.84R HX  96
KEARNEY *      CLEAR     91  70  49 NW6       29.84R HX  97
YORK           CLEAR     86  81  84 CALM      29.80R HX 102
$$

NEZ011>018-030>034-042>045-240200-
NORTHEAST NEBRASKA

CITY           SKY/WX    TMP DP  RH WIND       PRES   REMARKS
NORFOLK        CLEAR     86  76  71 S7        29.77R HX  96
ALBION         CLEAR     87  75  67 S3        29.79S HX  97
BLAIR          CLEAR     86  76  71 S3        29.78S HX  97
FREMONT        CLEAR     87  75  66 SE6       29.77S HX  96
TEKAMAH        CLEAR     86  77  74 S6        29.76S HX  97
WAYNE          CLOUDY    86  80  82 S3        29.77R HX 102
$$

NEZ050>053-065>068-078-088>093-240200-
SOUTHEAST NEBRASKA

CITY           SKY/WX    TMP DP  RH WIND       PRES   REMARKS
LINCOLN        PTCLDY    90  74  59 S12       29.76S HX  99
OMAHA EPPLEY   PTCLDY    90  75  61 S14       29.76S HX 100
BEATRICE       CLOUDY    91  71  52 S12       29.78S HX  97
FALLS CITY     CLOUDY    87  76  69 S10       29.79S HX  97
NEBRASKA CITY  PTCLDY    84  77  80 S8        29.79S HX  94
PLATTSMOUTH    CLEAR     86  78  77 SE8       29.78S HX  98
$$

NEZ044-045-051>053-067-240200-
OMAHA AREA

CITY           SKY/WX    TMP DP  RH WIND       PRES   REMARKS
OMAHA EPPLEY   PTCLDY    90  75  61 S14       29.76S HX 100
BLAIR          CLEAR     86  76  71 S3        29.78S HX  97
FREMONT        CLEAR     87  75  66 SE6       29.77S HX  96
MILLARD        CLEAR     89  77  68 SE6       29.76S HX 101
OFFUTT AFB     CLEAR     88  78  71 SE10      29.77S HX 100
PLATTSMOUTH    CLEAR     86  78  77 SE8       29.78S HX  98
WAHOO          FAIR      87  79  77 SE3       29.77S HX 100
$$




USA.gov is the U.S. government's official web portal to all federal, state and local government web resources and services.